Hellas — J8B3126 — position and weather

sailwx.info

Track history (hours):
 
Tides and Currents Weather Stations Pressure Air Temp Water Temp Dewpoint Dewpoint Depression Visibility Wind Speed Wind Dir Waves Ship Positions

Hellas

Last reported at 2014-Jul-24 19:07 UTC. Time now 2014-Jul-25 13:42 UTC.
Position N 40°45' E 028°40'.

Length 50 m; draft 4.4 m.

Type: Tow > 200 m length. MMSI: 375113000.

Date/timePositionNaut miles runAvg speedWind from/ knotsBaromVisibWave heightAir tempDewpointWater temp
2014-Jul-24 19:07N 40°45' E 028°40'5 8.9
2014-Jul-24 18:33N 40°45' E 028°47'9 8.6
2014-Jul-24 17:28N 40°45' E 028°59'8 8.3
2014-Jul-24 16:29N 40°44' E 029°10'8 8.0
2014-Jul-24 15:32N 40°44' E 029°20'7 7.1
2014-Jul-24 14:33N 40°45' E 029°29'1 0.6
2014-Jul-24 13:30N 40°44' E 029°29'1 0.0
2014-Jul-23 15:07N 40°44' E 029°30'  
2014-Jul-19 10:31N 40°44' E 029°30'  
Track history (hours):
 
Tides and Currents Weather Stations Pressure Air Temp Water Temp Dewpoint Dewpoint Depression Visibility Wind Speed Wind Dir Waves Ship Positions

Hellas

Last reported at 2014-Jul-24 19:07 UTC. Time now 2014-Jul-25 13:42 UTC.
Position N 40°45' E 028°40'.

Length 50 m; draft 4.4 m.

Type: Tow > 200 m length. MMSI: 375113000.

Date/timePositionNaut miles runAvg speedWind from/ knotsBaromVisibWave heightAir tempDewpointWater temp
2014-Jul-24 19:07N 40°45' E 028°40'5 8.9
2014-Jul-24 18:33N 40°45' E 028°47'9 8.6
2014-Jul-24 17:28N 40°45' E 028°59'8 8.3
2014-Jul-24 16:29N 40°44' E 029°10'8 8.0
2014-Jul-24 15:32N 40°44' E 029°20'7 7.1
2014-Jul-24 14:33N 40°45' E 029°29'1 0.6
2014-Jul-24 13:30N 40°44' E 029°29'1 0.0
2014-Jul-23 15:07N 40°44' E 029°30'  
2014-Jul-19 10:31N 40°44' E 029°30'  

Dump ship's entire track history